ICESAT-2

Last updated on Sat Oct 25 2025 00:02:33 GMT+0000 (Coordinated Universal Time)

1 43613U 18070A 25297.62712279 .00018620 00000+0 67398-3 0 9996 2 43613 92.0028 227.4852 0006899 66.4611 293.7363 15.28329932396483
UTC large
Height (km)
Speed (km/s)
/
Latitude / Longitude
Inclination (degrees)
Orbital Period (minutes)
Azimuth
Elevation
Range (km)
Doppler Factor

Next 0 passes for location: London (51.5072 / 0.1276)

Sorry there are no passes over London.